Flag for Saint Vincent and Grenadines Weather past 2 weeks in Kingstown, Saint Vincent and Grenadines

Now
84 °F

Sprinkles. Partly sunny.


Feels Like: 96 °F
Forecast: 82 / 85 °F
Wind: 10 mph from North

Location: Arnos Vale

Current Time: Oct 24, 2014 at 2:47:26 PM

Latest Report: Oct 24, 2014 at 1:00 PM


Visibility: N/A

Pressure: 29.92 "Hg

Humidity: 84%

Dew point: 79 °F

Location of KingstownLocation

Historic Weather in Kingstown — Graph

°F

Kingstown temperature yesterday

Maximum temperature yesterday: 84 °F (at 11:00 AM)
Minimum temperature yesterday: 81 °F (at 6:00 AM)
Average temperature yesterday: 82 °F

Past Weeks' High & Low Weather Summary

 TemperatureHumidityPressure
High90 °F (Oct 10, 11:00 AM)94% (Oct 15, 6:00 AM)30.04 "Hg (Oct 15, 6:00 AM)
Low75 °F (Oct 24, 6:00 AM)55% (Oct 15, 2:00 PM)29.80 "Hg (Oct 9, 3:00 PM)
Average85 °F74%29.93 "Hg
* Reported Oct 9 1:00 PM — Oct 24 1:00 PM, Kingstown, Weather by CustomWeather, © 2014

Note: Actual official high and low records may vary slightly from our data, if they occured in-between our weather recording intervals... More about our weather records

Advertising

Kingstown weather history for previous 24 hours

 ConditionsComfort  
Time TempWeatherWind HumidityBarometerVisibility
1:00 PM
Oct 24
84 °FSprinkles. Partly sunny.10 mph84%29.92 "HgN/A
12:00 PM82 °FPartly sunny.8 mph89%29.95 "HgN/A
11:00 AM88 °FBroken clouds.13 mph70%29.95 "HgN/A
10:00 AM84 °FPartly sunny.6 mph74%29.98 "HgN/A
9:00 AM82 °FBroken clouds.6 mph89%29.98 "HgN/A
8:00 AM81 °FSprinkles. Broken clouds.6 mph94%29.95 "HgN/A
7:00 AM77 °FBroken clouds.6 mph94%29.95 "HgN/A
6:00 AM75 °FThunderstorms. Broken clouds.No wind94%29.95 "HgN/A
1:00 AM77 °FPassing clouds.7 mph94%29.95 "HgN/A
12:00 AM77 °FSprinkles. Passing clouds.12 mph89%29.95 "HgN/A
11:00 PM
Oct 23
81 °FPassing clouds.6 mph84%29.95 "HgN/A
10:00 PM81 °FPassing clouds.9 mph89%29.95 "HgN/A
9:00 PM81 °FPassing clouds.7 mph84%29.95 "HgN/A
8:00 PM81 °FPartly cloudy.10 mph79%29.92 "HgN/A
7:00 PM82 °FPartly cloudy.10 mph74%29.92 "HgN/A
5:00 PM82 °FPartly sunny.10 mph79%29.89 "HgN/A
4:00 PM84 °FBroken clouds.12 mph79%29.89 "HgN/A
3:00 PM82 °FPartly sunny.10 mph84%29.89 "HgN/A
2:00 PM82 °FWarm.10 mph79%29.89 "HgN/A
Weather by CustomWeather, © 2014

See weather overviewHow to use our weather pages